Kosmos-1562

operational
NORAD ID: 15001 Int'l Des: 1984-052 Owner: GUKOS Country: SU
LEOCIRCULAR

关于 Kosmos-1562

正在加载描述...

实时位置

正在加载3D地球...

即将过境

高度历史

Altitude vs Time

uPlot chart will show altitude changes over time

两行轨道根数

1 15001U 84052D 26062.56250560 .00000012 00000-0 18449-3 0 9993
2 15001 74.0094 96.7038 0016002 280.3347 195.2092 12.49964148905585
Epoch: Mar 3, 2026 • Age: 31 hours

当前状态

高度 1473.6 km
速度 7.13 km/s
星下点 22.35°N, 1.84°E
发射日期 May 28, 1984
运行时间 41.7 years
类型 other

技术详情

分类 Payload
质量 60.00 kg
干质量 60.00 kg
总质量 60.00 kg
长度 0.80 m
直径 0.80 m
跨度 0.80 m
形状 Poly
制造商 NPOPM
平台类型 Strela-1 11F625
阶段状态 In Orbit
所有者/国家 GUKOS/SU

大型星座

Loading constellations...